Regional Weather Roundup
Issued by NWS

Home | Current Version | Previous Version | Graphics & Text | Print | Product List | Glossary On
Versions: 1 2 3 4 5 6 7 8 9 10 11 12 13 14 15 16 17 18 19 20 21 22 23 24 25 26 27 28 29 30 31 32 33 34 35 36 37 38 39 40 41 42 43 44 45 46 47 48 49 50
000
ASUS43 KLOT 040203
RWRIL

ILLINOIS REGIONAL WEATHER ROUNDUP
NATIONAL WEATHER SERVICE CHICAGO/ROMEOVILLE IL
900 PM CDT TUE MAY 03 2016

NOTE: "FAIR" INDICATES FEW OR NO CLOUDS BELOW 12,000 FEET WITH NO
SIGNIFICANT WEATHER AND/OR OBSTRUCTIONS TO VISIBILITY.

* THESE STATIONS ARE NOT UNDER NWS QUALITY CONTROL. THEY ALSO MAY NOT
  REPORT WEATHER SUCH AS PRECIPITATION OR FOG.

ILZ001-002-007-009-015-016-024-040300-
NORTHWEST ILLINOIS

CITY           SKY/WX    TMP DP  RH WIND       PRES   REMARKS
MOLINE           N/A     62  41  46 SW10      29.77F
STERLING*      CLOUDY    61  45  55 SW6       29.77F
$$

ILZ003-004-008-010-011-017-018-040300-
NORTH CENTRAL ILLINOIS

CITY           SKY/WX    TMP DP  RH WIND       PRES   REMARKS
ROCKFORD       CLOUDY    61  41  47 SW9       29.74F
FREEPORT*      CLOUDY    58  43  58 SW10      29.75F
ROCHELLE*      CLOUDY    57  46  66 SW10      29.76F
DE KALB*       CLOUDY    59  43  56 SW10      29.76F
$$

ILZ005-006-012>014-019>023-040300-
NORTHEAST ILLINOIS

CITY           SKY/WX    TMP DP  RH WIND       PRES   REMARKS
CHICAGO-OHARE  CLOUDY    61  40  45 SW10      29.75F
CHICAGO-MIDWAY CLOUDY    62  38  40 SW10      29.76F
AURORA         CLOUDY    60  42  51 SW10      29.77F
LANSING*       CLOUDY    58  40  49 SW6       29.78F
WAUKEGAN       CLOUDY    61  41  47 SW8       29.72F
DUPAGE AIRPORT CLOUDY    60  40  47 SW10      29.75F
WHEELING       CLOUDY    62  39  42 SW9       29.75F
NORTHERLY ISL    N/A     63  35  35 SW8         N/A
NORTHERLY ISL    N/A     63  35  35 SW8         N/A
$$

LMZ740>746-040300-
SOUTHERN LAKE MICHIGAN

STATION/POSITION SKY/WX   TEMP    WIND        PRES    VSBY  WAVE
                          AIR SEA DIR/SP/G                  HT/PER
                          (F)     (DEG/KT/KT) (MB)    (MI)  (FT/S)
SOUTHERN BUOY              46 41  180/ 12/ 14 1006.6          1/ 3
HARRISON CRIB              65     260/ 16/ 19   N/A
BURNHAM HARBOR             63     230/  6/ 12   N/A
CALUMET HARBOR             64                 1007.7F
BURNS HARBOR               63     230/  8/ 13 1008.8F
MICHIGAN CITY              62     170/  8/  9   N/A
ST. JOSEPH                 55 50                N/A           0
$$

ILZ025>027-034>036-040-047-049-050-058-095>099-040300-
WEST-CENTRAL ILLINOIS

CITY           SKY/WX    TMP DP  RH WIND       PRES   REMARKS
QUINCY         MOCLDY    57  44  62 SW6       29.87F
MACOMB*        MOCLDY    57  44  61 SW8       29.86F
PITTSFIELD*    CLOUDY    59  43  54 SW5       29.90S
$$

ILZ028>032-037-038-041>044-048-051>054-059>061-040300-
CENTRAL ILLINOIS

CITY           SKY/WX    TMP DP  RH WIND       PRES   REMARKS
BLOOMINGTON    CLOUDY    58  41  53 SW9       29.85F
DECATUR        MOCLDY    57  44  62 SW9       29.88S
PEORIA         PTCLDY    57  39  51 SW8       29.83F
SPRINGFIELD    MOCLDY    59  45  59 SW5       29.88S
TAYLORVILLE    NOT AVBL
$$

ILZ033-039-045-046-055>057-062-063-040300-
EAST-CENTRAL ILLINOIS

CITY           SKY/WX    TMP DP  RH WIND       PRES   REMARKS
CHAMPAIGN      CLEAR     55  45  68 SW9       29.86S
MATTOON        MOCLDY    57  44  62 SW8       29.88S
$$

ILZ079-100>102-040300-
SOUTHWEST ILLINOIS

CITY           SKY/WX    TMP DP  RH WIND       PRES   REMARKS
ALTON          CLEAR     52  45  76 SW6       29.92F
BELLEVILLE     CLEAR     56  46  69 SW3       29.92S
CAHOKIA*       CLEAR     56  45  66 S5        29.92F
SPARTA*        CLEAR     55  46  72 CALM      29.95S
$$

ILZ064>066-069>071-074>076-080>082-084>086-088>090-092>094-040300-
SOUTH-CENTRAL ILLINOIS

CITY           SKY/WX    TMP DP  RH WIND       PRES   REMARKS
CARBONDALE     CLOUDY    55  47  74 W6        29.94S
MT. VERNON     CLOUDY    52  43  71 CALM      29.93F
SALEM*         CLOUDY    57  48  71 SW3       29.92S
$$

ILZ067-068-072-073-078-083-087-091-040300-
SOUTHEAST ILLINOIS

CITY           SKY/WX    TMP DP  RH WIND       PRES   REMARKS
LAWRENCEVILLE  LGT RAIN  59  47  64 W6        29.90S
FLORA*         CLOUDY    59  46  60 W7        29.92S
HARRISBURG*    CLOUDY    56  47  72 W5        29.94S
ROBINSON*      CLOUDY    56  46  69 W8        29.90S
$$

ABBREVIATIONS USED IN REMARKS
   TC - TEMPERATURE IN CELSIUS
  WCI - WIND CHILL INDEX
   HX - HEAT INDEX
  VSB - VISIBILITY
$$





USA.gov is the U.S. government's official web portal to all federal, state and local government web resources and services.